Weather Roundup
Issued by NWS Springfield, MO

Home | Current Version | Previous Version | Text Only | Print | Product List | Glossary On
Versions: 1 2 3 4 5 6 7 8 9 10 11 12 13 14 15 16 17 18 19 20 21 22 23 24 25 26 27 28 29 30 31 32 33 34 35 36 37 38 39 40 41 42 43 44 45 46 47 48 49 50
000
NZUS99 KSGF 212357
HRRSGF

HOURLY WEATHER
NATIONAL WEATHER SERVICE SPRINGFIELD MO
600 PM CST SAT JAN 21 2017

......SGF CWA......

CITY           SKY/WX    TMP DP  RH WIND       PRES   REMARKS
SPRINGFIELD    CLOUDY    59  41  51 SE3       29.48S
6HR MIN TEMP:  57; 6HR MAX TEMP:  65;

JOPLIN         LGT RAIN  59  44  57 S6        29.47S
6HR MIN TEMP:  56; 6HR MAX TEMP:  62; 6HR PCP: TRACE;

WEST PLAINS    CLOUDY    59  44  57 CALM      29.54R
6HR MIN TEMP:  59; 6HR MAX TEMP:  68;

ROLLA          MOCLDY    53  41  63 N5        29.51R
6HR MIN TEMP:  53; 6HR MAX TEMP:  66;

BRANSON        CLOUDY    61  39  44 S5        29.50R

......SURROUNDING SGF CWA......

CITY           SKY/WX    TMP DP  RH WIND       PRES   REMARKS
CHANUTE        CLOUDY    50  41  71 CALM      29.47S
PARSONS        CLOUDY    52  40  63 E3        29.46F
COFFEYVILLE    RAIN      52  43  71 NE9       29.45S
EMPORIA        LGT RAIN  47  44  90 SE6       29.49R
HARRISON AR    CLOUDY    60  43  53 S5        29.49S

......KANSAS AND MISSOURI......

CITY           SKY/WX    TMP DP  RH WIND       PRES   REMARKS
KANSAS CTY INT CLOUDY    51  39  63 E6        29.50R
SEDALIA        PTCLDY    53  42  66 N5        29.53S
ST JOSEPH      PTCLDY    45  40  82 NE3       29.51R
ST LOUIS       MOCLDY    60  39  45 CALM      29.53R
WICHITA        CLOUDY    47  44  90 NE7       29.42R
TOPEKA         LGT RAIN  52  41  66 CALM      29.50R
OLATHE         LGT RAIN  50  42  74 SE3       29.50R

......TENNESSEE......

CITY           SKY/WX    TMP DP  RH WIND       PRES   REMARKS
MEMPHIS        NOT AVBL
NASHVILLE      CLOUDY    61  49  64 S5        29.63R

......ARKANSAS.......

CITY           SKY/WX    TMP DP  RH WIND       PRES   REMARKS
FAYETTEVILLE   CLOUDY    53  52  96 CALM      29.47S FOG
FT SMITH       CLOUDY    59  51  75 E10       29.42F
LITTLE ROCK    CLOUDY    61  58  90 SE6       29.50R

......OKLAHOMA.......

CITY           SKY/WX    TMP DP  RH WIND       PRES   REMARKS
TULSA          MOCLDY    56  46  69 E3        29.41S
PONCA CITY     PTCLDY    54  36  50 E9        29.38S
MCALESTER      PTCLDY    62  54  74 S9        29.42S
OKLAHOMA CITY  MOCLDY    59  38  45 SE9       29.36S

......IOWA............

CITY           SKY/WX    TMP DP  RH WIND       PRES   REMARKS
DES MOINES     NOT AVBL
QUAD CITIES    MOCLDY    44  40  85 NW9       29.54R

......ILLINOIS........

CITY           SKY/WX    TMP DP  RH WIND       PRES   REMARKS
QUINCY         NOT AVBL
CHICAGO        PTCLDY    51  43  74 SW3       29.52R




USA.gov is the U.S. government's official web portal to all federal, state and local government web resources and services.